Wind_Speed
11 11 12 11 11 11 10 9 9 8 8 7 6 6 6 6 6 5 6 6 4 3 3 3 2 1 1 1 1 1 2 2 2 2 3 3 4 4 5 5 6 6 6
8 9 10 10 10 10 10 9 8 7 6 6 6 6 6 6 5 4 4 4 3 3 3 3 2 1 1 1 1 1 1 2 3 3 3 4 4 4 5 5 5 6 6
7 8 9 9 9 9 8 8 7 7 7 7 6 6 6 5 5 4 3 2 1 1 1 1 1 1 2 2 2 2 2 3 3 4 4 4 5 5 5 6 6 7 7
5 6 7 7 7 7 8 7 7 6 7 7 6 6 5 5 4 4 3 2 1 0 1 0 0 1 2 2 3 3 3 3 3 4 4 5 5 5 6 6 7 7 8
4 5 6 6 6 6 6 6 6 6 6 6 6 5 5 5 4 3 3 2 2 1 1 1 1 1 2 2 2 3 3 3 3 3 4 4 5 6 6 7 7 8 8
4 4 5 5 5 4 4 5 5 5 5 4 4 4 4 3 3 3 3 3 3 2 2 2 1 1 2 2 2 2 3 4 4 4 4 5 6 7 8 8 8 9 9
3 4 5 5 4 3 3 3 3 3 3 3 3 3 3 3 3 3 3 3 3 3 3 2 2 2 2 3 3 3 3 4 5 5 6 7 7 7 8 8 9 10 10
4 5 5 5 5 4 4 4 3 2 2 2 1 2 3 3 3 3 3 3 3 3 3 2 2 2 3 3 3 4 4 5 6 7 7 7 8 8 9 9 9 10 11
5 5 5 6 7 6 6 5 4 4 3 3 2 2 2 3 3 4 3 3 3 3 3 3 2 3 3 4 4 5 6 7 7 8 8 8 9 9 10 10 11 11 11
6 6 6 7 7 7 7 6 5 5 5 4 4 3 3 3 5 5 5 4 4 4 3 3 3 3 4 4 5 6 6 6 7 8 9 9 10 10 11 11 11 12 13
7 7 8 8 8 8 8 6 5 5 6 5 5 5 5 5 5 6 6 6 5 4 4 4 5 5 5 6 6 7 7 7 8 8 9 9 10 11 11 12 13 13 14
9 9 9 10 10 10 9 7 7 7 7 6 6 5 5 6 6 6 7 6 5 5 5 5 6 6 6 6 7 8 8 8 9 9 10 10 11 12 12 13 14 14 15
11 10 10 10 11 11 10 9 8 8 7 8 8 7 7 7 7 7 7 7 7 7 7 7 6 6 6 7 8 9 10 10 11 11 12 12 13 13 14 14 14 15 16
12 11 11 11 10 11 10 10 9 8 8 8 8 8 8 8 7 8 8 9 9 9 9 8 8 8 8 9 9 10 11 12 13 13 13 13 14 14 15 15 16 16 17
13 12 11 11 11 11 11 11 10 8 8 8 9 9 9 9 9 10 11 11 11 11 10 10 10 10 10 11 11 12 13 13 14 15 15 15 15 16 16 16 17 18 18
13 13 12 12 12 12 12 11 11 10 9 9 10 10 11 11 11 12 11 12 12 12 12 12 12 12 12 13 14 14 15 15 15 16 17 17 17 18 18 19 19 19 20
15 14 13 12 13 13 12 12 12 12 11 11 11 12 12 12 12 12 12 12 13 14 14 14 14 14 15 15 16 16 17 17 18 18 19 19 19 20 20 20 20 21 21
17 16 15 14 13 14 14 13 13 13 13 12 13 13 13 12 12 13 13 14 14 14 14 15 15 16 16 17 17 18 19 19 20 20 21 22 21 22 23 23 23 23 23
18 18 17 17 15 16 16 16 15 15 15 14 14 14 14 13 13 13 14 14 14 14 15 16 17 18 18 18 19 20 21 21 22 22 23 23 24 24 24 25 25 24 24
19 19 19 19 18 18 18 18 17 17 16 16 16 15 15 15 14 14 15 15 15 15 17 18 19 19 19 20 21 21 22 23 23 24 25 25 25 26 26 26 26 26 26
21 20 20 20 20 20 20 19 19 18 18 18 17 17 17 17 16 16 17 17 17 18 19 19 20 20 21 21 22 22 24 24 24 25 26 26 27 27 28 28 27 27 27
23 22 22 21 21 21 21 21 21 20 20 20 20 19 19 19 19 19 18 19 19 20 20 21 21 20 21 22 22 24 24 25 26 27 27 28 28 28 29 29 30 30 30
25 24 24 24 24 23 22 22 23 22 22 22 22 21 21 22 22 21 21 21 21 21 22 22 22 22 22 23 24 24 25 26 27 28 28 29 29 30 30 31 32 32 32
26 26 27 27 27 26 25 23 24 24 24 24 23 23 23 23 23 23 23 23 24 24 24 24 23 24 24 25 25 26 26 27 28 28 29 30 31 32 32 32 33 33 33
29 28 29 29 29 27 26 25 25 24 24 25 25 25 25 25 25 25 25 25 25 25 25 25 25 26 26 26 26 26 27 28 28 29 30 30 31 32 32 33 33 34 34
32 31 30 30 29 28 27 27 27 27 26 26 26 26 26 26 25 26 26 25 25 26 26 27 27 27 27 27 28 28 29 29 30 31 31 31 32 32 33 34 34 35 35
Wind_Direction
55 57 56 58 59 57 57 62 67 69 77 80 80 78 85 93 100 106 103 104 110 96 99 114 116 139 213 263 267 241 265 271 288 279 272 292 295 298 296 294 291 287 285
54 54 54 55 54 56 57 56 62 66 73 78 74 74 83 89 93 101 101 97 100 98 107 119 128 179 221 229 224 258 280 273 288 290 290 288 286 294 298 302 296 290 290
46 50 51 53 53 54 53 52 56 57 64 70 72 71 71 83 91 91 104 110 128 110 124 131 191 242 248 251 250 261 294 296 286 283 281 285 297 300 298 300 302 301 296
28 40 44 50 51 51 51 55 57 58 59 59 63 70 70 69 77 86 94 93 118 206 240 178 324 293 287 281 283 274 285 297 298 298 285 287 296 300 299 299 299 298 298
12 27 34 37 47 48 53 57 53 54 54 56 60 60 59 55 53 56 60 44 46 15 330 325 320 320 313 295 287 299 295 299 301 300 297 291 294 297 299 299 299 297 298
355 4 18 24 25 37 49 47 42 44 44 48 49 46 43 42 37 33 34 28 28 15 355 335 326 312 315 309 292 290 290 300 300 294 304 306 302 301 298 297 297 298 298
337 336 351 4 9 13 12 11 23 26 27 32 33 30 30 29 25 18 16 17 16 14 9 355 334 311 306 306 302 297 297 302 302 296 301 302 305 308 305 305 303 303 303
304 321 328 342 344 335 330 330 329 320 330 337 6 22 14 13 18 17 9 7 2 354 343 330 323 313 299 299 300 300 298 300 300 299 299 301 305 308 311 310 307 305 306
292 310 318 323 324 320 317 310 311 302 300 308 296 328 347 357 352 344 333 337 345 344 333 323 311 311 307 297 299 298 298 299 298 298 299 303 305 308 311 310 306 308 308
284 298 308 310 313 310 306 301 296 299 307 295 288 303 312 320 321 318 319 311 317 323 317 308 302 303 309 311 307 305 305 304 307 306 300 300 304 307 311 314 315 313 312
281 291 293 295 299 301 297 294 290 291 292 298 298 292 294 294 302 304 299 298 297 302 296 292 293 292 296 298 302 307 312 315 317 317 315 312 311 311 310 312 313 312 311
283 287 288 288 289 292 290 284 283 284 287 288 290 293 306 298 291 301 300 293 282 285 291 289 290 289 293 298 301 304 309 313 317 320 320 319 317 318 317 315 314 312 311
284 287 285 281 283 285 286 284 282 281 282 285 284 287 295 297 293 291 293 291 282 283 287 291 292 294 295 299 301 303 307 309 311 313 315 314 314 316 316 316 314 313 311
277 282 285 281 279 280 280 281 277 275 282 286 283 288 295 292 289 286 288 289 282 282 285 285 288 292 293 296 297 300 303 305 306 308 310 312 312 313 313 313 313 314 314
272 275 280 282 280 276 277 276 275 272 279 283 285 290 289 288 283 286 285 287 285 282 279 278 282 286 290 294 296 298 301 302 302 304 306 306 307 308 309 310 310 311 312
272 273 274 279 280 276 275 274 273 274 274 277 282 287 287 287 287 287 287 287 287 283 280 279 281 284 288 290 292 294 297 299 301 301 302 304 305 306 306 306 307 308 309
266 269 269 271 274 272 273 270 270 270 272 275 278 283 285 286 286 287 288 289 286 283 278 277 281 283 284 286 288 290 293 295 297 298 299 301 302 304 305 305 306 309 311
263 262 261 263 265 268 270 269 269 270 272 275 278 281 284 286 286 288 289 288 285 283 281 280 279 282 282 284 287 289 291 293 295 297 298 298 298 300 301 303 303 304 305
261 260 258 258 260 262 265 268 269 269 270 274 276 280 281 282 283 285 287 288 286 284 284 282 280 281 281 283 285 287 290 291 294 296 297 297 296 297 299 301 301 300 300
259 258 258 257 259 260 261 264 266 267 268 270 271 274 278 280 281 284 286 289 287 284 283 283 281 283 283 284 286 287 288 290 292 294 294 295 296 297 299 298 298 297 297
257 254 254 257 260 260 261 263 263 265 265 266 268 272 276 278 280 283 286 288 288 286 285 285 285 285 284 284 287 287 287 288 290 292 293 293 295 296 297 296 296 296 294
255 251 252 258 260 260 261 263 263 263 264 265 268 273 276 278 281 284 285 286 286 286 285 286 287 287 286 285 286 288 289 291 290 290 292 293 294 295 295 295 295 295 294
252 252 253 254 255 257 259 263 262 262 264 266 268 272 273 277 279 280 282 283 284 285 285 287 288 287 285 285 287 289 291 292 294 294 293 293 294 293 293 293 293 294 294
252 253 255 257 256 256 259 261 261 262 265 266 268 271 273 276 276 276 279 281 283 284 286 286 287 288 288 287 288 290 291 294 296 297 296 294 293 292 293 293 294 294 294
252 254 256 256 257 257 259 260 261 263 267 269 271 271 271 274 274 275 277 279 283 287 288 288 288 288 287 288 289 290 292 293 295 296 296 295 294 293 292 293 293 293 293
252 253 254 256 257 257 258 259 261 262 264 268 270 271 270 273 274 275 278 281 284 287 288 288 288 287 288 289 290 291 292 293 293 295 295 295 295 295 294 292 292 292 292
Height
5894 5892 5890 5889 5888 5887 5886 5885 5884 5883 5883 5883 5882 5882 5881 5882 5882 5882 5882 5882 5883 5883 5883 5884 5885 5885 5886 5886 5886 5886 5886 5886 5887 5887 5886 5886 5886 5885 5885 5885 5884 5883 5883
5895 5894 5892 5891 5890 5889 5888 5887 5886 5885 5885 5884 5884 5883 5883 5883 5883 5883 5883 5883 5883 5884 5884 5884 5885 5885 5885 5886 5886 5886 5886 5886 5886 5886 5886 5885 5886 5884 5884 5883 5883 5882 5881
5897 5895 5894 5892 5891 5890 5889 5888 5887 5887 5886 5885 5885 5885 5884 5884 5884 5884 5884 5884 5884 5884 5884 5885 5885 5885 5885 5885 5885 5885 5885 5885 5885 5885 5885 5885 5884 5884 5883 5882 5882 5881 5880
5898 5896 5895 5893 5892 5891 5890 5889 5889 5888 5887 5887 5886 5886 5886 5885 5885 5885 5885 5885 5885 5885 5884 5884 5885 5885 5884 5884 5884 5884 5884 5884 5884 5884 5884 5884 5883 5883 5882 5881 5880 5879 5878
5898 5897 5896 5894 5893 5892 5891 5890 5890 5889 5889 5888 5887 5887 5887 5886 5886 5886 5885 5885 5885 5885 5884 5884 5885 5884 5884 5884 5884 5884 5883 5883 5883 5883 5882 5882 5881 5881 5880 5880 5879 5877 5876
5899 5898 5896 5895 5894 5893 5892 5891 5890 5890 5889 5889 5888 5888 5888 5887 5887 5886 5886 5885 5885 5885 5884 5884 5884 5884 5884 5883 5883 5883 5883 5883 5882 5882 5881 5881 5880 5879 5879 5878 5877 5876 5875
5899 5898 5897 5896 5894 5893 5892 5892 5891 5890 5890 5889 5889 5888 5888 5888 5887 5887 5886 5886 5885 5885 5884 5884 5884 5884 5884 5884 5883 5883 5882 5882 5881 5881 5880 5880 5879 5878 5877 5876 5875 5874 5872
5898 5897 5896 5895 5894 5893 5892 5891 5891 5890 5890 5889 5889 5889 5888 5888 5887 5887 5886 5886 5885 5885 5884 5884 5884 5884 5884 5883 5883 5882 5882 5881 5881 5880 5879 5879 5878 5877 5875 5874 5873 5872 5871
5897 5896 5895 5894 5893 5892 5892 5891 5890 5890 5889 5889 5888 5888 5888 5887 5887 5886 5886 5885 5885 5884 5884 5883 5883 5883 5883 5882 5882 5882 5881 5880 5880 5879 5878 5877 5876 5875 5873 5872 5871 5870 5868
5895 5894 5894 5893 5892 5891 5891 5890 5889 5889 5889 5888 5887 5887 5887 5886 5886 5885 5885 5885 5884 5883 5883 5883 5882 5882 5882 5881 5881 5880 5880 5879 5878 5877 5876 5875 5874 5873 5871 5870 5869 5867 5866
5893 5893 5892 5891 5890 5890 5889 5888 5888 5887 5887 5886 5886 5886 5885 5885 5884 5884 5883 5883 5883 5882 5882 5882 5881 5881 5880 5880 5880 5879 5878 5877 5877 5876 5874 5873 5872 5871 5869 5868 5866 5865 5863
5891 5890 5889 5889 5888 5887 5887 5886 5886 5885 5885 5884 5884 5883 5883 5882 5882 5882 5881 5881 5881 5881 5880 5880 5880 5879 5879 5879 5878 5878 5877 5876 5876 5874 5873 5872 5870 5868 5867 5865 5864 5862 5861
5888 5887 5887 5886 5885 5885 5885 5884 5884 5883 5883 5882 5882 5882 5881 5881 5880 5880 5880 5880 5879 5879 5878 5878 5878 5878 5877 5877 5877 5876 5876 5875 5874 5872 5871 5870 5868 5866 5865 5863 5861 5859 5857
5885 5884 5884 5883 5883 5882 5882 5882 5881 5881 5880 5879 5879 5879 5879 5879 5878 5878 5878 5877 5877 5877 5877 5876 5876 5876 5875 5875 5875 5874 5873 5872 5871 5870 5869 5867 5865 5864 5862 5860 5858 5856 5854
5882 5881 5881 5880 5880 5879 5879 5879 5879 5878 5878 5877 5877 5877 5877 5876 5875 5875 5874 5874 5874 5874 5874 5874 5874 5873 5873 5872 5872 5871 5870 5869 5868 5867 5865 5864 5862 5861 5859 5857 5855 5853 5850
5878 5878 5877 5877 5877 5876 5876 5876 5876 5876 5875 5875 5875 5874 5874 5873 5872 5872 5871 5871 5871 5870 5870 5870 5870 5870 5869 5869 5868 5868 5867 5866 5865 5863 5862 5860 5858 5857 5855 5853 5851 5849 5846
5873 5874 5874 5874 5873 5873 5873 5873 5873 5873 5873 5873 5872 5871 5871 5870 5870 5869 5868 5868 5867 5866 5866 5867 5866 5866 5866 5865 5864 5864 5863 5862 5861 5859 5857 5856 5854 5852 5850 5848 5846 5844 5841
5869 5869 5869 5869 5870 5870 5870 5869 5869 5869 5869 5869 5869 5868 5867 5867 5866 5866 5865 5864 5863 5862 5862 5862 5862 5862 5861 5861 5860 5859 5858 5857 5856 5854 5853 5851 5849 5847 5845 5843 5840 5838 5836
5863 5864 5864 5865 5865 5865 5866 5866 5866 5866 5866 5866 5866 5865 5864 5863 5863 5862 5861 5860 5859 5858 5858 5858 5857 5857 5856 5856 5855 5854 5853 5852 5851 5849 5847 5845 5844 5842 5839 5837 5835 5832 5830
5857 5858 5859 5859 5860 5861 5861 5861 5861 5861 5861 5861 5861 5861 5860 5860 5859 5858 5857 5856 5855 5854 5854 5853 5852 5852 5851 5850 5849 5849 5847 5846 5845 5843 5841 5839 5837 5835 5833 5830 5828 5826 5823
5851 5852 5853 5854 5854 5855 5855 5855 5856 5856 5856 5856 5856 5856 5855 5855 5854 5853 5852 5852 5851 5850 5849 5848 5847 5846 5845 5844 5843 5842 5841 5840 5838 5837 5835 5833 5830 5828 5826 5823 5821 5819 5816
5845 5846 5847 5848 5848 5848 5849 5849 5850 5850 5850 5850 5850 5850 5850 5849 5849 5848 5848 5847 5846 5845 5844 5843 5842 5840 5839 5838 5837 5836 5834 5833 5831 5830 5828 5826 5823 5821 5818 5816 5814 5811 5808
5838 5839 5839 5840 5841 5842 5842 5843 5844 5844 5844 5844 5844 5844 5844 5844 5843 5843 5842 5841 5840 5840 5839 5837 5836 5835 5833 5832 5831 5829 5828 5826 5824 5822 5820 5818 5816 5813 5810 5808 5805 5802 5799
5830 5831 5832 5832 5833 5834 5835 5835 5836 5837 5837 5838 5838 5838 5838 5837 5837 5836 5836 5835 5834 5833 5832 5831 5830 5828 5827 5825 5824 5822 5820 5818 5816 5814 5812 5809 5807 5804 5801 5799 5796 5793 5790
5822 5823 5824 5824 5825 5826 5827 5828 5829 5829 5830 5830 5831 5831 5831 5830 5830 5829 5828 5828 5828 5827 5826 5824 5823 5822 5820 5818 5817 5815 5813 5810 5808 5806 5803 5800 5798 5795 5792 5789 5787 5784 5781
5812 5814 5815 5816 5816 5817 5818 5819 5820 5821 5822 5823 5823 5823 5823 5823 5823 5822 5821 5821 5820 5819 5818 5817 5816 5814 5813 5811 5809 5807 5805 5802 5800 5797 5794 5791 5789 5786 5783 5780 5777 5774 5771